Regional Weather Roundup
Issued by NWS

Home | Current Version | Previous Version | Graphics & Text | Print | Product List | Glossary On
Versions: 1 2 3 4 5 6 7 8 9 10 11 12 13 14 15 16 17 18 19 20 21 22 23 24 25 26 27 28 29 30 31 32 33 34 35 36 37 38 39 40 41 42 43 44 45 46 47 48 49 50
000
ASUS43 KLMK 302002
RWRKY
KENTUCKY REGIONAL WEATHER ROUNDUP
NATIONAL WEATHER SERVICE LOUISVILLE KY
400 PM EDT WED JUL 30 2014

NOTE "FAIR" INDICATES FEW OR NO CLOUDS BELOW 12,000 FEET
WITH NO SIGNIFICANT WEATHER AND/OR OBSTRUCTIONS TO VISIBILITY.

KYZ001>023-026-027-061>063-070>075-302100-
WESTERN AND SOUTH CENTRAL KENTUCKY

CITY           SKY/WX    TMP DP  RH WIND       PRES   REMARKS
PADUCAH        CLOUDY    79  58  48 W3        30.09F
HENDERSON      PTSUNNY   81  57  44 W8        30.07S
OWENSBORO      PTSUNNY   82  57  42 W10       30.08S
HOPKINSVILLE   PTSUNNY   80  53  38 NW7       30.09F
BOWLING GREEN  SUNNY     84  53  34 VRB5      30.08F
GLASGOW        PTSUNNY   81  52  36 NW5       30.08F
$$

KYZ024-025-028>034-038-045-046-053-302100-
NORTH CENTRAL KENTUCKY

CITY           SKY/WX    TMP DP  RH WIND       PRES   REMARKS
LOUISVILLE/SDF MOSUNNY   82  56  40 W12       30.06F
LOUISVILLE/LOU MOSUNNY   80  56  43 W10       30.06F
FORT KNOX      NOT AVBL
$$

KYZ035>037-039>044-047>052-055>060-089>105-302100-
NORTHEAST KENTUCKY

CITY           SKY/WX    TMP DP  RH WIND       PRES   REMARKS
LEXINGTON      MOSUNNY   80  58  46 W13       30.08F
COVINGTON      MOSUNNY   78  57  48 W10G21    30.03F
FRANKFORT      MOSUNNY   79  56  45 W8        30.06F
$$

KYZ054-064>069-076>088-106>120-302100-
SOUTHEAST KENTUCKY

CITY           SKY/WX    TMP DP  RH WIND       PRES   REMARKS
JACKSON        MOSUNNY   75  59  57 VRB3      30.10F
LONDON         PTSUNNY   78  56  46 SW7       30.10F
SOMERSET       CLOUDY    73  55  53 CALM      30.10F
MIDDLESBORO    MOSUNNY   77  56  47 CALM      30.10F
MONTICELLO     PTCLDY    80  59  48 VRB3      30.11F
$$




USA.gov is the U.S. government's official web portal to all federal, state and local government web resources and services.